SIRIUSSAT-2 (43596 NORAD) Tracking and Keplerian Element Data

This shows tracking and keplerian element data for the satellite.

Feedback or suggestion? Click here.




ElementValue
Catalog43596
NameSIRIUSSAT-2
Epoch Orbit13274
Epoch Day344.36554324
Epoch Year2020
RAAN99.6513
Inclination51.6062
Eccentricity0.0006261
Argument of Perigee312.7483
Mean Anonmoly99.6145
Mean Motion16.40921535
Decay Rate0.08904132
L11 43596U 98067PH 20344.36554324 .08904132 12494-4 57179-3 0 9995
L22 43596 51.6062 99.6513 0006261 312.7483 99.6145 16.40921535132742



Live tracking and technical data element details for SIRIUSSAT-2 (NORAD 43596). SIRIUSSAT-2 can be tracked NOW for your location showing map with azimuth and elevation plus other details from your city location.







IsCatalogInMostPopularTable: catalog: 43596, numindb: 504
Update: records affected: 1



GetName: 43596 SIRIUSSAT-2

Hit Count: updated at: Fri, 02 Dec 2022 12:26:51 GMT